Wind_Speed
33 37 45 49 55 61 67 69 67 70 76 73 76 71 71 73 74 76 80 84 90 100 106 109 109 110 111 111 112 113 112 111 111 107 103 96 95 93 86 81 84 77 81 78
40 42 45 48 54 60 64 66 71 73 78 76 75 77 78 74 76 76 75 77 83 88 96 105 111 112 114 115 113 112 113 114 113 110 108 105 98 95 92 90 86 78 74 89
45 49 52 52 58 58 61 68 73 80 80 79 75 75 69 65 67 67 69 70 74 81 90 98 103 108 111 115 115 115 112 110 113 114 111 107 105 104 102 95 86 79 73 81
47 51 58 59 61 61 67 75 77 79 77 73 66 63 65 61 61 61 65 68 71 75 80 88 96 104 111 111 116 116 115 112 109 110 111 110 102 102 98 97 93 89 94 83
49 53 59 60 63 68 76 80 83 76 72 65 63 62 58 55 52 53 56 61 64 69 75 83 88 94 102 106 111 116 115 116 111 105 106 107 104 97 97 87 83 83 86 89
51 56 61 65 67 74 77 85 81 76 72 63 68 58 53 49 46 45 46 49 52 55 59 66 77 86 92 96 99 103 112 114 113 106 105 104 100 96 95 93 80 77 84 83
58 60 57 61 66 77 81 88 74 74 71 68 62 54 45 42 39 37 37 40 44 49 53 55 58 68 78 85 91 95 100 106 108 106 103 103 96 93 95 91 80 69 77 78
59 60 63 62 68 78 86 82 75 73 70 71 63 52 43 38 39 39 41 43 45 46 46 51 54 57 64 72 75 80 88 94 96 97 99 98 100 97 92 92 93 72 69 72
58 58 60 60 70 80 83 79 74 69 70 65 54 39 37 37 40 51 50 50 50 48 47 41 46 50 52 59 63 65 67 78 85 89 95 94 97 100 97 95 95 87 78 71
56 60 58 62 70 78 82 78 74 67 66 48 41 34 38 43 46 54 53 48 46 46 41 40 36 38 42 46 48 51 54 61 70 80 88 92 95 97 97 95 100 100 92 84
58 60 60 66 73 77 81 76 72 68 64 43 33 34 40 48 53 58 45 42 41 41 37 31 31 26 32 33 35 40 45 49 56 69 81 87 90 95 98 98 95 102 107 100
58 60 61 67 76 79 80 73 68 66 54 37 35 43 43 50 56 60 49 46 44 40 30 24 23 20 23 26 27 32 38 43 49 59 70 78 82 89 97 100 98 101 106 108
57 59 60 64 72 75 75 70 67 64 46 37 36 44 49 56 63 57 47 42 37 33 27 20 15 16 17 16 19 25 32 38 44 52 61 67 73 81 92 99 100 102 102 104
56 59 61 65 68 75 69 65 63 60 38 30 31 37 45 52 60 47 45 43 38 29 22 14 7 7 6 8 13 19 24 31 39 49 57 60 64 71 80 90 96 99 99 101
55 58 60 65 66 72 67 61 60 57 34 26 31 36 45 52 56 51 44 44 40 31 22 12 9 7 3 2 8 13 19 24 33 42 48 51 55 64 73 79 84 89 92 95
54 56 60 63 64 70 65 58 56 54 29 22 28 36 44 49 58 53 44 44 39 30 25 18 15 14 8 4 8 15 17 22 31 41 48 50 53 57 63 71 79 83 86 90
51 58 56 55 61 65 60 55 54 46 22 19 24 30 38 44 50 51 41 40 38 34 27 25 22 19 17 15 15 17 16 18 24 35 44 50 51 54 58 64 72 78 83 86
51 58 56 55 63 64 54 51 52 28 13 16 20 26 31 34 40 43 36 37 39 34 32 30 24 21 20 19 18 16 14 14 19 27 37 43 47 51 55 58 62 66 72 76
58 58 54 52 59 62 56 52 42 16 12 11 16 22 23 30 31 35 30 32 34 31 28 26 24 23 22 20 17 16 13 10 10 15 24 33 40 45 50 55 58 59 63 67
56 58 52 52 57 58 51 47 31 15 12 12 15 20 21 26 27 30 27 26 26 26 25 25 24 23 23 22 17 15 11 7 6 9 14 20 26 34 41 48 53 55 57 60
56 59 53 51 54 56 49 40 29 14 15 11 12 14 20 21 24 22 24 21 16 17 18 19 19 21 23 22 19 16 12 8 4 2 6 11 17 24 30 38 45 52 57 59
55 52 49 42 54 51 45 36 30 22 18 16 15 14 15 17 21 20 19 17 15 11 8 10 11 13 14 13 13 15 13 9 5 1 2 6 9 14 18 23 30 37 46 54
54 47 48 44 51 47 41 34 31 28 24 21 17 16 16 17 17 18 17 19 13 13 7 5 5 3 5 7 8 9 10 10 8 5 2 2 4 6 9 13 17 22 29 37
53 50 51 43 46 52 37 33 30 29 28 28 26 23 22 24 24 22 20 18 17 13 14 9 7 3 4 8 10 10 11 11 9 7 2 1 5 5 5 7 12 16 21 27
51 52 49 45 45 41 36 31 28 29 28 28 30 30 31 31 30 29 26 24 22 19 17 15 14 11 10 8 7 7 6 7 10 9 9 13 14 14 15 16 17 19 20 23
51 52 53 50 40 37 38 36 28 27 30 28 29 30 32 34 34 34 34 32 33 29 26 23 24 23 21 18 18 18 17 16 16 17 16 17 18 19 19 21 21 24 26 28
Wind_Direction
312 309 300 299 299 296 296 295 294 294 289 284 283 284 285 282 279 273 264 258 255 252 250 249 251 251 250 250 249 245 242 242 243 240 239 239 239 243 240 239 243 244 248 252
307 305 308 304 301 299 298 296 293 292 290 288 291 296 294 288 282 278 272 267 262 256 252 249 247 249 249 249 248 247 244 241 241 242 238 236 236 237 239 239 243 244 250 255
295 305 310 308 308 305 302 298 294 290 291 297 302 297 291 287 283 280 276 271 265 260 255 250 248 247 247 247 248 248 246 244 241 240 240 237 235 235 238 239 238 243 240 241
295 299 303 308 312 311 312 308 300 294 304 306 305 299 298 293 288 280 275 271 268 264 261 258 255 251 246 245 246 246 246 246 242 241 239 239 234 235 236 241 239 240 239 249
296 295 302 308 314 317 317 314 308 311 314 316 312 311 307 301 290 282 276 271 266 260 256 254 253 252 253 251 250 249 247 244 245 241 239 238 238 232 233 236 240 241 240 243
307 303 302 305 314 318 318 316 320 323 321 322 323 319 311 306 300 294 286 280 276 270 262 256 255 252 247 247 247 245 247 244 243 245 240 237 236 233 230 227 233 242 244 244
310 310 310 312 314 319 319 320 323 324 325 325 327 321 314 307 303 298 295 294 288 278 272 267 260 255 253 251 247 244 241 241 241 242 238 235 233 232 226 227 226 233 235 241
306 307 310 317 315 321 322 322 326 327 329 329 331 326 327 327 327 326 318 308 295 286 274 266 264 260 254 252 250 247 243 240 239 238 235 232 231 230 225 222 221 230 225 229
304 311 311 318 321 323 324 322 327 330 332 329 325 326 331 337 334 328 323 314 309 302 298 286 271 265 261 258 254 248 245 241 237 235 233 228 227 227 225 221 220 221 220 227
304 310 317 318 320 327 324 324 329 331 332 328 321 336 340 338 339 335 326 318 309 302 300 292 286 271 264 258 255 250 242 239 235 229 229 226 221 222 223 219 217 218 228 228
303 313 318 319 322 326 325 326 330 333 333 327 326 342 343 343 345 343 332 324 319 315 310 302 293 278 266 260 251 242 235 231 227 225 224 225 219 219 220 220 218 218 219 222
309 315 316 318 324 326 324 327 331 333 333 324 340 344 345 348 350 346 342 336 326 322 321 310 298 279 264 256 247 235 227 222 219 217 218 222 218 218 219 219 218 220 222 222
310 313 315 319 325 326 323 327 331 332 331 336 349 345 351 352 350 349 349 344 342 337 331 322 303 281 270 259 238 227 219 213 209 211 214 219 218 216 218 219 219 221 224 225
307 311 315 321 325 327 324 327 331 331 325 334 349 349 348 351 354 353 355 356 355 348 340 335 320 305 293 254 235 220 211 204 201 203 209 217 217 215 219 220 221 224 225 227
305 310 314 323 326 327 323 328 331 332 327 338 348 353 353 354 354 3 3 4 1 0 2 7 26 33 8 243 224 208 186 183 192 200 208 215 217 217 219 222 223 225 227 229
304 311 315 322 328 329 323 327 330 330 317 344 354 349 352 350 358 5 6 9 11 13 25 39 52 57 62 108 143 142 149 166 185 197 206 212 215 216 218 222 225 227 228 228
305 313 318 326 326 328 322 330 326 323 311 342 349 346 350 351 352 1 11 18 26 33 45 53 58 65 74 83 103 113 132 160 184 199 207 211 215 218 221 223 225 227 229 231
302 312 317 327 328 329 324 330 327 314 309 334 339 341 350 347 347 360 16 29 38 44 56 56 56 60 69 77 83 101 121 154 187 202 208 212 216 219 222 225 227 228 230 232
305 311 320 327 329 333 332 333 334 299 302 322 339 342 352 358 351 2 26 37 47 48 53 60 59 58 58 66 76 93 105 131 172 202 217 222 223 224 226 228 230 230 231 234
305 311 320 327 334 335 336 335 339 305 299 321 334 343 353 0 1 5 25 42 49 43 45 44 45 49 51 49 59 75 86 108 147 184 206 217 225 231 233 234 234 234 235 236
302 306 317 330 337 336 333 337 346 296 299 317 324 339 339 351 352 1 7 34 48 52 51 45 47 59 60 56 48 55 61 68 86 154 214 217 221 225 228 232 235 236 236 237
299 308 322 328 336 335 330 335 346 319 284 289 300 318 332 337 341 347 357 359 28 43 41 43 43 32 55 64 60 42 44 52 56 56 230 235 240 241 241 239 237 238 240 240
298 310 321 328 337 335 329 333 343 332 286 282 288 296 303 307 312 319 330 339 339 356 36 39 43 354 341 359 6 7 10 20 30 43 82 169 208 236 242 240 238 238 240 241
299 311 318 327 335 334 327 330 334 332 314 280 282 283 282 287 293 298 296 302 311 325 332 336 333 311 293 285 284 298 312 317 325 333 324 76 335 287 262 262 253 251 251 250
296 307 313 324 332 332 327 328 329 325 325 312 301 293 293 290 290 287 284 288 294 291 295 290 297 304 293 279 287 292 285 297 295 285 255 270 283 272 260 253 249 250 253 254
293 302 309 321 331 330 329 321 322 328 317 318 318 317 315 308 299 294 291 291 298 295 290 291 290 284 282 281 270 272 269 267 270 272 270 272 279 280 273 270 271 273 271 269
Height
10607 10604 10599 10593 10586 10579 10570 10562 10556 10547 10534 10532 10521 10521 10514 10507 10500 10494 10491 10487 10485 10485 10483 10483 10484 10489 10494 10499 10509 10517 10526 10531 10542 10560 10570 10581 10594 10600 10613 10623 10626 10635 10634 10639
10599 10594 10588 10582 10574 10566 10556 10547 10537 10528 10514 10509 10507 10500 10487 10479 10466 10460 10457 10454 10450 10450 10448 10448 10452 10456 10461 10467 10474 10483 10495 10506 10514 10528 10544 10558 10571 10582 10591 10601 10612 10620 10616 10625
10589 10584 10577 10571 10563 10552 10541 10528 10515 10502 10498 10491 10487 10468 10458 10452 10440 10434 10429 10426 10422 10419 10418 10418 10420 10425 10430 10435 10442 10453 10462 10477 10489 10501 10514 10532 10549 10562 10571 10583 10598 10606 10608 10608
10580 10573 10566 10559 10549 10539 10527 10511 10495 10484 10481 10474 10459 10447 10431 10426 10417 10409 10400 10397 10395 10393 10390 10389 10391 10392 10396 10402 10411 10419 10431 10444 10462 10474 10491 10504 10525 10538 10555 10564 10579 10587 10591 10593
10569 10563 10556 10548 10536 10524 10508 10491 10475 10472 10460 10448 10436 10421 10409 10399 10392 10387 10379 10371 10367 10365 10361 10356 10357 10362 10364 10372 10380 10386 10398 10412 10427 10445 10465 10481 10501 10522 10535 10550 10558 10568 10575 10579
10559 10553 10545 10536 10522 10509 10493 10475 10462 10448 10434 10427 10412 10403 10389 10379 10372 10364 10357 10351 10346 10340 10336 10332 10328 10329 10330 10335 10344 10354 10366 10380 10395 10417 10438 10456 10475 10500 10513 10530 10540 10549 10557 10562
10549 10542 10532 10523 10510 10495 10477 10463 10456 10442 10425 10411 10401 10386 10378 10368 10359 10353 10346 10337 10327 10318 10314 10311 10308 10305 10305 10309 10317 10327 10338 10352 10368 10388 10411 10432 10453 10473 10492 10508 10523 10531 10536 10547
10538 10533 10522 10513 10499 10485 10466 10451 10441 10425 10415 10397 10384 10373 10364 10356 10348 10340 10331 10320 10310 10301 10295 10291 10286 10284 10283 10283 10291 10300 10313 10327 10346 10364 10383 10408 10428 10450 10469 10488 10506 10514 10523 10533
10530 10521 10512 10501 10488 10473 10454 10440 10432 10420 10405 10390 10379 10371 10360 10353 10343 10331 10320 10308 10296 10287 10279 10274 10271 10270 10268 10268 10272 10279 10291 10304 10322 10344 10361 10384 10405 10427 10448 10468 10484 10502 10507 10516
10520 10512 10502 10491 10480 10464 10445 10432 10423 10411 10401 10389 10373 10367 10356 10348 10340 10324 10310 10297 10285 10273 10265 10259 10255 10254 10253 10253 10257 10264 10272 10284 10302 10322 10343 10363 10384 10405 10426 10446 10466 10483 10493 10501
10511 10503 10493 10482 10469 10455 10440 10426 10414 10401 10389 10381 10372 10361 10352 10341 10330 10318 10301 10287 10274 10263 10253 10246 10243 10242 10240 10241 10244 10248 10255 10267 10284 10305 10325 10345 10367 10386 10408 10425 10444 10461 10465 10479
10502 10495 10484 10475 10460 10443 10430 10422 10409 10397 10387 10378 10365 10356 10348 10336 10320 10304 10289 10277 10264 10254 10245 10239 10234 10231 10230 10232 10235 10239 10246 10256 10270 10289 10309 10331 10352 10372 10389 10405 10424 10438 10449 10463
10494 10487 10478 10471 10457 10441 10426 10416 10404 10393 10381 10372 10362 10353 10340 10328 10314 10297 10285 10271 10258 10248 10240 10234 10230 10228 10227 10229 10230 10233 10240 10249 10263 10281 10300 10320 10341 10358 10373 10389 10405 10417 10430 10442
10486 10477 10468 10461 10449 10435 10422 10414 10401 10388 10379 10372 10365 10356 10346 10331 10317 10302 10286 10271 10258 10247 10239 10233 10229 10229 10228 10228 10229 10232 10237 10246 10260 10277 10295 10314 10333 10349 10363 10377 10390 10403 10418 10429
10478 10470 10460 10452 10440 10427 10414 10406 10396 10385 10376 10369 10362 10354 10343 10332 10322 10303 10286 10271 10260 10249 10241 10236 10234 10233 10231 10230 10231 10234 10240 10248 10262 10279 10297 10313 10328 10340 10352 10366 10378 10389 10400 10411
10470 10465 10456 10441 10431 10419 10408 10401 10392 10380 10373 10368 10361 10353 10343 10332 10316 10302 10291 10279 10265 10254 10247 10244 10241 10239 10237 10236 10236 10239 10245 10253 10266 10280 10293 10306 10318 10330 10341 10351 10360 10371 10383 10391
10461 10457 10451 10439 10428 10415 10405 10394 10386 10376 10369 10366 10360 10354 10345 10334 10324 10313 10299 10286 10273 10264 10257 10253 10250 10247 10245 10244 10244 10247 10253 10260 10270 10281 10291 10302 10312 10321 10330 10337 10345 10356 10366 10376
10454 10449 10442 10433 10420 10407 10398 10389 10379 10369 10366 10363 10359 10354 10348 10341 10330 10320 10307 10293 10282 10276 10268 10264 10260 10257 10255 10255 10256 10258 10262 10268 10275 10283 10291 10300 10308 10315 10321 10328 10337 10346 10353 10362
10445 10441 10435 10426 10415 10401 10389 10382 10372 10366 10364 10361 10357 10353 10348 10341 10332 10325 10313 10302 10295 10289 10282 10276 10271 10269 10267 10265 10265 10267 10271 10275 10280 10286 10292 10299 10304 10310 10315 10321 10328 10336 10342 10347
10437 10433 10426 10419 10407 10395 10390 10380 10370 10365 10362 10359 10355 10351 10346 10340 10334 10326 10318 10310 10304 10299 10293 10287 10284 10279 10277 10276 10275 10275 10277 10279 10283 10286 10290 10294 10299 10304 10309 10315 10320 10327 10332 10336
10431 10426 10419 10412 10401 10393 10386 10378 10369 10365 10361 10358 10354 10349 10345 10340 10335 10330 10324 10318 10311 10306 10301 10297 10292 10288 10286 10285 10284 10284 10284 10284 10286 10288 10289 10291 10293 10297 10301 10305 10310 10315 10319 10324
10424 10420 10413 10407 10399 10389 10382 10377 10368 10364 10359 10355 10352 10348 10343 10339 10335 10332 10328 10322 10317 10311 10307 10303 10299 10297 10293 10291 10290 10289 10288 10288 10288 10289 10290 10291 10292 10294 10296 10298 10301 10304 10308 10312
10416 10413 10408 10402 10395 10387 10379 10373 10365 10361 10357 10353 10349 10345 10341 10337 10334 10330 10327 10323 10319 10315 10310 10306 10303 10301 10298 10296 10294 10292 10292 10291 10290 10289 10290 10290 10291 10292 10293 10294 10296 10298 10300 10303
10407 10405 10401 10396 10390 10383 10377 10370 10364 10359 10354 10349 10345 10341 10337 10333 10329 10327 10323 10319 10317 10315 10312 10308 10305 10302 10300 10298 10296 10295 10293 10292 10292 10291 10291 10291 10291 10291 10291 10292 10292 10293 10294 10295
10399 10397 10395 10391 10385 10378 10373 10368 10362 10357 10352 10346 10341 10337 10333 10328 10325 10321 10317 10314 10312 10310 10308 10306 10304 10301 10299 10297 10295 10294 10292 10291 10290 10290 10290 10290 10289 10289 10288 10288 10288 10289 10289 10289
10391 10390 10388 10385 10379 10374 10369 10364 10359 10354 10349 10343 10337 10332 10327 10323 10319 10315 10313 10310 10307 10305 10302 10300 10298 10297 10295 10293 10292 10291 10290 10288 10287 10286 10285 10284 10284 10284 10283 10283 10282 10281 10281 10280